[[{"header":{"parameterUnit":"m.s-1","parameterCategory":1,"la1":30.2991,"la2":30.254,"lo1":-89.0895,"lo2":-89.0444,"dy":0.0017,"dx":0.0017,"nx":28,"ny":28,"refTime":"2023-03-19T21:00:00:Z","depth":0,"parameterNumber":2,"parameterNumberName":"U-component_of_WINDS"},"data":[0,0,0,0,0,0,0,0,0,0,0,0,0,0,0,0,0,0,0,0,0,0,0,0,0,0,0,0,0,0,0,0,0,0,0,0,0,0,0,0,0,0,0,0,0,0,0,0,0,0,0,0,0,0,0,0,0,0,0.895,0.8949,0,0.8919,0.8919,0.8918,0.8937,0.8937,0.8938,0.8939,0.8903,0.8901,0.8899,0,0,0,0,0,0,0,0,0,0,0,0,0,0.902,0.9018,0.895,0.8949,0.8949,0.8919,0.8919,0.8918,0.8936,0.8938,0.8939,0.894,0.8903,0.8901,0.8899,0,0,0,0,0,0,0,0,0,0,0,0,0,0.8989,0.9018,0.895,0.8954,0.8955,0.8919,0.8919,0.8918,0.8936,0.8938,0.8939,0.894,0.8904,0.8901,0.8899,0.8855,0,0,0.889,0.8889,0,0,0,0,0,0,0,0,0.8991,0.8987,0.8954,0.8954,0.8954,0.8933,0.893,0.8897,0.8936,0.8943,0.8939,0.8941,0.8911,0.8908,0.8899,0.8853,0.8852,0.889,0.8889,0.8887,0.8887,0,0,0,0,0,0,0,0.8993,0.8988,0.8937,0.8954,0.8954,0.8957,0.8954,0.8924,0.892,0.8942,0.8944,0.894,0.8912,0.8902,0.8899,0.8851,0.889,0.8888,0.8886,0.8885,0.8769,0.8767,0,0,0,0,0,0,0.8995,0.899,0.8938,0.8936,0.8976,0.8955,0.8951,0.8938,0.892,0.8919,0.8939,0.8941,0.8906,0.8902,0.8897,0.8845,0.8887,0.8885,0.8883,0.877,0.8768,0.8767,0,0,0,0,0,0,0.8997,0.8991,0.894,0.8963,0.8957,0.8952,0.8937,0.8937,0.8927,0.8918,0.8917,0.893,0.8907,0.8901,0.8866,0.8844,0.8884,0.8881,0.8772,0.877,0.8768,0.874,0,0,0,0,0,0,0.8999,0.8991,0.8975,0.8963,0.8956,0.891,0.8936,0.8936,0.8923,0.8926,0.8909,0.8907,0.8907,0.887,0.8863,0.8841,0.8879,0.8774,0.8771,0.8768,0.8743,0.8737,0.8732,0,0,0,0,0,0.9001,0.8967,0.8974,0.8968,0.8936,0.8908,0.8904,0.8906,0.8922,0.8905,0.8899,0.8908,0.8848,0.8866,0.8859,0.8835,0.8775,0.8772,0.8768,0.8745,0.8738,0.8732,0,0,0,0,0,0,0.8975,0.8966,0.8973,0.8935,0.8923,0.8912,0.889,0.8899,0.888,0.8883,0.8885,0.8881,0.8844,0.8837,0.8857,0.8793,0.8814,0.8809,0.8798,0.8792,0.8787,0.8788,0.8877,0,0,0,0,0,0.8965,0.8945,0.8937,0.8904,0.8898,0.8895,0.8883,0.8886,0.8873,0.8867,0.8858,0.8844,0.8822,0.8807,0.8786,0.8743,0.8739,0.8723,0.8718,0.8713,0.8708,0.8685,0.8677,0.8756,0.8756,0.8756,0,0,0.8943,0.8936,0.8922,0.8898,0.8889,0.8867,0.889,0.8865,0.8848,0.8862,0.8829,0.8822,0.8806,0.8767,0.8749,0.8759,0.8686,0.8709,0.8706,0.8703,0.868,0.8673,0.8666,0.8754,0.8754,0.8754,0,0,0.8892,0.8885,0.8857,0.8848,0.8834,0.8833,0.8827,0.8815,0.8812,0.8779,0.8789,0.8768,0.873,0.8718,0.8707,0.8654,0.8661,0.8647,0.8619,0.8596,0.8589,0.8584,0.8564,0.8557,0.8643,0.8643,0.8643,0,0.8866,0.8834,0.884,0.8815,0.8804,0.8819,0.8789,0.8779,0.8759,0.875,0.8763,0.8716,0.8706,0.8664,0.8652,0.8643,0.8634,0.8648,0.859,0.8585,0.858,0.856,0.8553,0.8641,0.8641,0.8642,0.8642,0,0.8802,0.878,0.8759,0.8741,0.8728,0.87,0.8701,0.8687,0.8692,0.8689,0.8655,0.8645,0.8622,0.8613,0.8616,0.8571,0.8578,0.8591,0.8611,0.857,0.8552,0.8545,0.8639,0.8639,0.864,0.864,0,0,0.873,0.8719,0.8711,0.8703,0.869,0.8673,0.8646,0.8626,0.8613,0.8599,0.8576,0.8545,0.8557,0.8544,0.8547,0.8527,0.8485,0.8542,0.8542,0.853,0.8434,0.8423,0.8414,0.8491,0.849,0.8489,0.8435,0,0.8678,0.8633,0.8638,0.8595,0.8574,0.8589,0.8565,0.8555,0.8552,0.8533,0.853,0.8507,0.8526,0.8518,0.8499,0.8494,0.8465,0.8498,0.8467,0.8466,0.8469,0.8405,0.8393,0.8343,0.8428,0.8426,0.8426,0,0.8609,0.8595,0.8549,0.8541,0.8533,0.8512,0.8494,0.8477,0.8465,0.8464,0.8452,0.8458,0.8431,0.8455,0.8416,0.8438,0.8427,0.8422,0.8421,0.8416,0.8442,0.8397,0.8327,0.8318,0.8415,0.8416,0.8416,0,0.8559,0.8529,0.8498,0.8491,0.8481,0.8466,0.8461,0.8451,0.8439,0.8423,0.8415,0.8396,0.8385,0.837,0.8371,0.8388,0.8331,0.8355,0.8329,0.8328,0.8313,0.8314,0.8238,0.8309,0.831,0.831,0.831,0,0.8498,0.8469,0.8476,0.8456,0.8425,0.8432,0.84,0.8397,0.8388,0.8367,0.8379,0.8359,0.8363,0.8343,0.8344,0.8311,0.8307,0.8304,0.8304,0.8302,0.8302,0.8292,0.8295,0.8308,0.8308,0.8309,0.8309,0,0.8436,0.844,0.8407,0.8401,0.8399,0.8376,0.837,0.8351,0.8351,0.8325,0.8319,0.8318,0.8295,0.8296,0.827,0.827,0.823,0.8235,0.8234,0.8234,0.8207,0.8209,0.8121,0.8109,0.8189,0.8189,0.8188,0,0.8395,0.8374,0.8367,0.8355,0.8349,0.833,0.8318,0.8325,0.8312,0.8298,0.8281,0.826,0.8243,0.8206,0.8202,0.8182,0.8185,0.8156,0.8182,0.8181,0.8183,0.8183,0.8181,0.815,0.8149,0.8148,0.8148,0,0.8323,0.8326,0.831,0.8294,0.8281,0.8268,0.8257,0.8246,0.8252,0.8237,0.8215,0.8202,0.8177,0.8155,0.8137,0.813,0.8139,0.814,0.8133,0.8129,0.8128,0.8127,0.8218,0.8141,0.8142,0.8143,0.8143,0.8143,0.8269,0.8251,0.8243,0.8225,0.8218,0.8208,0.819,0.8189,0.8171,0.8152,0.8157,0.8132,0.8122,0.8098,0.809,0.807,0.808,0.8069,0.8066,0.8063,0.8059,0.8134,0.8066,0.8067,0.8067,0.8067,0.8067,0,0.8196,0.8192,0.8176,0.8161,0.8146,0.8159,0.8148,0.8134,0.8113,0.8103,0.8087,0.8062,0.8042,0.8038,0.8018,0.8002,0.8006,0.7997,0.7997,0.7995,0.8052,0.8059,0.7994,0.7994,0.7994,0.7994,0.7994,0.7994,0.8156,0.8125,0.8128,0.8095,0.8091,0.8068,0.806,0.8051,0.8043,0.8015,0.7999,0.7997,0.799,0.797,0.7952,0.7951,0.7942,0.7931,0.7931,0.7984,0.7991,0.7998,0.8005,0.7929,0.7929,0.7876,0.7876,0.7875]},{"header":{"parameterUnit":"m.s-1","parameterCategory":1,"la1":30.2991,"la2":30.254,"lo1":-89.0895,"lo2":-89.0444,"dy":0.0017,"dx":0.0017,"nx":28,"ny":28,"refTime":"2023-03-19T21:00:00:Z","depth":0,"parameterNumber":3,"parameterNumberName":"V-component_of_WINDS"},"data":[0,0,0,0,0,0,0,0,0,0,0,0,0,0,0,0,0,0,0,0,0,0,0,0,0,0,0,0,0,0,0,0,0,0,0,0,0,0,0,0,0,0,0,0,0,0,0,0,0,0,0,0,0,0,0,0,0,0,-7.4833,-7.4835,0,-7.4991,-7.4992,-7.4994,-7.489,-7.4885,-7.4881,-7.4876,-7.5031,-7.504,-7.5048,0,0,0,0,0,0,0,0,0,0,0,0,0,-7.4436,-7.4444,-7.4833,-7.4835,-7.4837,-7.499,-7.4992,-7.4994,-7.4891,-7.4885,-7.4879,-7.4874,-7.5028,-7.5039,-7.5049,0,0,0,0,0,0,0,0,0,0,0,0,0,-7.4602,-7.4446,-7.4833,-7.4804,-7.4803,-7.499,-7.4992,-7.4995,-7.4892,-7.4885,-7.4878,-7.4871,-7.5025,-7.5038,-7.505,-7.5273,0,0,-7.509,-7.5095,0,0,0,0,0,0,0,0,-7.4593,-7.4617,-7.4806,-7.4806,-7.4805,-7.4913,-7.4909,-7.5088,-7.4894,-7.4858,-7.4876,-7.4868,-7.4997,-7.5012,-7.5057,-7.528,-7.5286,-7.5091,-7.5098,-7.5104,-7.5108,0,0,0,0,0,0,0,-7.4582,-7.461,-7.4895,-7.4809,-7.4809,-7.4781,-7.4797,-7.4943,-7.4966,-7.4861,-7.4853,-7.4874,-7.4996,-7.5045,-7.506,-7.5289,-7.509,-7.5102,-7.511,-7.5115,-7.5699,-7.5707,0,0,0,0,0,0,-7.4573,-7.4601,-7.489,-7.49,-7.468,-7.4794,-7.4811,-7.4886,-7.4964,-7.4969,-7.488,-7.4868,-7.5027,-7.5045,-7.5065,-7.5329,-7.5104,-7.5116,-7.5123,-7.5692,-7.5701,-7.571,0,0,0,0,0,0,-7.4565,-7.46,-7.4884,-7.4748,-7.4782,-7.4808,-7.4893,-7.4893,-7.4942,-7.4978,-7.4981,-7.4926,-7.5022,-7.5047,-7.5222,-7.5333,-7.5122,-7.5133,-7.5682,-7.5695,-7.5705,-7.5861,0,0,0,0,0,0,-7.4554,-7.4598,-7.4684,-7.4751,-7.479,-7.504,-7.49,-7.4901,-7.4965,-7.4952,-7.5023,-7.5028,-7.5018,-7.5203,-7.5235,-7.5347,-7.5143,-7.5673,-7.5688,-7.5702,-7.5846,-7.5876,-7.5902,0,0,0,0,0,-7.4541,-7.4721,-7.4689,-7.4725,-7.4899,-7.5047,-7.5069,-7.5056,-7.4975,-7.506,-7.5084,-7.5025,-7.5316,-7.5222,-7.5256,-7.5375,-7.5665,-7.5684,-7.5701,-7.5833,-7.587,-7.5902,0,0,0,0,0,0,-7.4664,-7.4729,-7.4695,-7.4903,-7.497,-7.5029,-7.5137,-7.5096,-7.5187,-7.517,-7.5148,-7.5165,-7.5348,-7.5378,-7.5272,-7.5593,-7.5478,-7.5503,-7.5566,-7.5602,-7.563,-7.5618,-7.5154,0,0,0,0,0,-7.4716,-7.4833,-7.4882,-7.5061,-7.5097,-7.5112,-7.5176,-7.516,-7.5228,-7.5256,-7.5292,-7.5359,-7.5464,-7.5535,-7.5635,-7.5849,-7.5862,-7.5948,-7.5976,-7.5999,-7.6021,-7.6135,-7.6173,-7.5767,-7.5767,-7.5767,0,0,-7.4824,-7.4874,-7.4948,-7.5087,-7.5138,-7.5257,-7.5136,-7.5268,-7.5356,-7.5275,-7.5443,-7.5471,-7.5544,-7.574,-7.5828,-7.5771,-7.6136,-7.6021,-7.604,-7.6049,-7.6157,-7.6195,-7.623,-7.5779,-7.5777,-7.5775,0,0,-7.5081,-7.5131,-7.5285,-7.5339,-7.5417,-7.5426,-7.5463,-7.5528,-7.5545,-7.5713,-7.5655,-7.5757,-7.5941,-7.5995,-7.6047,-7.6324,-7.6273,-7.6357,-7.6505,-7.6617,-7.6649,-7.6677,-7.6774,-7.681,-7.6379,-7.6379,-7.6379,0,-7.5204,-7.5384,-7.5369,-7.5505,-7.5567,-7.5501,-7.5655,-7.5707,-7.5814,-7.5857,-7.5792,-7.6021,-7.6066,-7.6272,-7.634,-7.6384,-7.6424,-7.6349,-7.6646,-7.6674,-7.67,-7.6792,-7.6829,-7.6389,-7.6388,-7.6387,-7.6386,0,-7.5531,-7.5657,-7.5771,-7.5878,-7.5952,-7.6097,-7.6101,-7.6178,-7.6156,-7.617,-7.6341,-7.6392,-7.6501,-7.6549,-7.6527,-7.6752,-7.6714,-7.6649,-7.6532,-7.6748,-7.6835,-7.687,-7.6403,-7.6399,-7.6396,-7.6394,0,0,-7.5871,-7.5968,-7.601,-7.6057,-7.6139,-7.6234,-7.6375,-7.6483,-7.6548,-7.6624,-7.674,-7.6897,-7.6836,-7.6895,-7.6878,-7.6977,-7.7191,-7.6898,-7.6899,-7.695,-7.744,-7.7489,-7.7531,-7.7158,-7.7165,-7.717,-7.7434,0,-7.6132,-7.638,-7.637,-7.66,-7.6715,-7.6654,-7.6775,-7.6838,-7.6855,-7.6953,-7.697,-7.7082,-7.6994,-7.7029,-7.7123,-7.7145,-7.7289,-7.7126,-7.7264,-7.7269,-7.7247,-7.7576,-7.7628,-7.7875,-7.7468,-7.7473,-7.7478,0,-7.647,-7.6559,-7.6802,-7.6866,-7.6913,-7.7024,-7.7121,-7.7216,-7.7284,-7.729,-7.7356,-7.7323,-7.7463,-7.7344,-7.7535,-7.7424,-7.7479,-7.7499,-7.7508,-7.752,-7.7386,-7.7596,-7.7953,-7.799,-7.7531,-7.7527,-7.7523,0,-7.6693,-7.6873,-7.7041,-7.7083,-7.7162,-7.7241,-7.7277,-7.7339,-7.7404,-7.7488,-7.753,-7.7629,-7.7683,-7.7759,-7.7753,-7.7667,-7.7947,-7.7827,-7.7953,-7.7954,-7.8015,-7.8011,-7.8385,-7.8052,-7.8052,-7.8051,-7.805,0,-7.6985,-7.7136,-7.7142,-7.7245,-7.7411,-7.7397,-7.7561,-7.7588,-7.7644,-7.7749,-7.7702,-7.7801,-7.7788,-7.7888,-7.7884,-7.8042,-7.8067,-7.8074,-7.8071,-7.8078,-7.8077,-7.8113,-7.8096,-7.8061,-7.8059,-7.8057,-7.8055,0,-7.7261,-7.7272,-7.7451,-7.7512,-7.753,-7.765,-7.77,-7.7797,-7.781,-7.7945,-7.7975,-7.7995,-7.811,-7.8112,-7.8243,-7.824,-7.8433,-7.8411,-7.8411,-7.8406,-7.8532,-7.852,-7.8942,-7.8996,-7.8629,-7.8632,-7.8635,0,-7.7447,-7.7562,-7.7635,-7.7704,-7.7745,-7.7856,-7.7922,-7.7912,-7.7983,-7.8069,-7.8155,-7.8266,-7.8354,-7.8539,-7.8564,-7.8664,-7.8643,-7.8784,-7.8657,-7.8661,-7.8644,-7.8637,-7.8647,-7.8808,-7.8813,-7.8816,-7.8819,0,-7.7775,-7.7775,-7.7874,-7.7975,-7.8057,-7.8135,-7.8208,-7.8266,-7.8263,-7.8345,-7.8463,-7.8531,-7.8666,-7.8775,-7.8872,-7.8906,-7.8862,-7.8858,-7.8893,-7.8901,-7.8896,-7.8899,-7.8477,-7.8849,-7.8846,-7.8843,-7.8842,-7.8841,-7.8011,-7.811,-7.8177,-7.8288,-7.8342,-7.8411,-7.8505,-7.853,-7.8629,-7.8739,-7.8726,-7.8857,-7.892,-7.9045,-7.9088,-7.9188,-7.9139,-7.9189,-7.9201,-7.9214,-7.9227,-7.8881,-7.9206,-7.9205,-7.9204,-7.9203,-7.9203,0,-7.8336,-7.8376,-7.8479,-7.8583,-7.867,-7.8623,-7.8701,-7.8776,-7.8893,-7.8957,-7.9045,-7.9179,-7.9285,-7.9318,-7.942,-7.9494,-7.9476,-7.9521,-7.9515,-7.9523,-7.9266,-7.9226,-7.9534,-7.9534,-7.9534,-7.9534,-7.9534,-7.9534,-7.8515,-7.8679,-7.8687,-7.8876,-7.8914,-7.9044,-7.9092,-7.9154,-7.9205,-7.9358,-7.9447,-7.9469,-7.9519,-7.9625,-7.9719,-7.9726,-7.9765,-7.9818,-7.9817,-7.9575,-7.9542,-7.951,-7.9472,-7.9827,-7.9827,-8.0066,-8.0068,-8.0069]}]]